Hourly Data Report for July 09, 2021

CARIBOU POINT (AUT)
NOVA SCOTIA
Current Station Operator: ECCC - MSC

45°46'00.000" N
62°41'00.000" W
2.40 m
8200774
71415
WBK

Download Data

Hourly Data (July 2021)
Hourly Data Report for July 9, 2021
TIME
LST
Temp Definition
°C
Dew Point Definition
°C
Rel Hum Definition
%
Precip. Amount Definition
mm

Wind Dir Definition
10's deg

Wind Spd Definition
km/h
Visibility Definition
km
Stn Press Definition
kPa
Hmdx Definition


Wind Chill Definition


Weather Definition


00:00 15.7 11.8 78 0.0 12 24   102.32     LegendNANA
01:00 16.0 11.8 76 0.0 13 26   102.22     LegendNANA
02:00 15.9 9.9 68 0.0 15 26   102.16     LegendNANA
03:00 16.0 10.1 68 0.0 15 28   102.09     LegendNANA
04:00 16.3 10.0 66 0.0 16 25   102.03     LegendNANA
05:00 16.7 12.2 75 0.0 15 35   101.93     LegendNANA
06:00 16.9 14.1 84 0.0 18 24   101.94     LegendNANA
07:00 16.4 14.9 91 0.0 19 14   101.99     LegendNANA
08:00 16.7 15.7 94 0.0 16 26   101.88     LegendNANA
09:00 18.1 16.9 93 0.2 18 21   101.80     LegendNANA
10:00 20.0 18.2 89 0.0 18 26   101.76 26   LegendNANA
11:00 20.8 18.7 88 0.0 19 20   101.75 27   LegendNANA
12:00 21.7 19.6 88 0.0 21 11   101.73 29   LegendNANA
13:00 22.1 20.1 89 0.0 22 9   101.77 30   LegendNANA
14:00 21.5 20.4 94 1.4 20 6   101.73 29   LegendNANA
15:00 22.5 21.2 93 0.5 19 14   101.69 31   LegendNANA
16:00 22.4 20.6 90 0.0 18 16   101.62 30   LegendNANA
17:00 22.9 21.2 90 0.0 19 13   101.60 31   LegendNANA
18:00 22.3 20.6 90 0.0 20 17   101.58 30   LegendNANA
19:00 20.7 19.2 92 0.0 18 21   101.51 28   LegendNANA
20:00 20.4 19.1 93 0.0 18 21   101.45 27   LegendNANA
21:00 20.4 19.0 92 0.0 17 21   101.35 27   LegendNANA
22:00 20.5 19.1 92 0.0 17 39   101.14 27   LegendNANA
23:00 21.1 19.1 88 0.0 17 41   100.99 28   LegendNANA

Notes on Data Quality.

Legend

  • E = Estimated
  • M = Missing
  • NA = Not Available*
  • [empty] = Indicates an unobserved value
Date modified: